Location: La Fredeussais
(48.1780°N, 1.3980°W)
Time: 18:25:59
(UTC+00:00)

Cosmos 2341 Rocket - Pass Details

Date: 09 May 2021
Orbit: 969 x 1004 km, 82.9° (Epoch: 15 June)

Event Time Altitude Azimuth Distance (km) Brightness Sun altitude
Rises 22:40:33 0° 351° (N) 3,742 8.5 -21.7°
Reaches altitude 10° 22:43:06 10° 353° (N) 2,789 7.5 -21.9°
Maximum altitude 22:49:32 80° 80° (E) 1,025 4.0 -22.2°
Enters shadow 22:51:46 44° 161° (SSE) 1,363 4.3 -22.4°
